Time,TemperatureF,DewpointF,PressureIn,WindDirection,WindDirectionDegrees,WindSpeedMPH,WindSpeedGustMPH,Humidity,HourlyPrecipIn,Conditions,Clouds,dailyrainin,SoftwareType,DateUTC
2013-01-24 00:06:00,-20.6,-25.8,30.20,WNW,284,0.0,0.0,76,0.00,,,0.00,Wunderground v.1.15,2013-01-24 05:06:00,
2013-01-24 00:11:00,-20.7,-25.9,30.20,WNW,284,0.0,0.0,76,0.00,,,0.00,Wunderground v.1.15,2013-01-24 05:11:00,
2013-01-24 00:16:00,-20.9,-26.1,30.20,WNW,284,0.0,0.0,76,0.00,,,0.00,Wunderground v.1.15,2013-01-24 05:16:00,
2013-01-24 00:25:00,-20.7,-25.7,30.20,WNW,284,0.0,0.0,77,0.00,,,0.00,Wunderground v.1.15,2013-01-24 05:25:00,
2013-01-24 00:30:00,-21.1,-26.5,30.20,WNW,284,0.0,0.0,75,0.00,,,0.00,Wunderground v.1.15,2013-01-24 05:30:00,
2013-01-24 00:35:00,-21.3,-26.7,30.20,WNW,284,0.0,1.0,75,0.00,,,0.00,Wunderground v.1.15,2013-01-24 05:35:00,
2013-01-24 00:41:00,-21.4,-26.6,30.20,WNW,284,0.0,1.0,76,0.00,,,0.00,Wunderground v.1.15,2013-01-24 05:41:00,
2013-01-24 00:46:00,-21.5,-26.7,30.20,WNW,284,0.0,0.0,76,0.00,,,0.00,Wunderground v.1.15,2013-01-24 05:46:00,
2013-01-24 00:55:00,-21.7,-27.1,30.19,WNW,284,0.0,0.0,75,0.00,,,0.00,Wunderground v.1.15,2013-01-24 05:55:00,
2013-01-24 01:01:00,-21.8,-27.2,30.20,WNW,284,0.0,0.0,75,0.00,,,0.00,Wunderground v.1.15,2013-01-24 06:01:00,
2013-01-24 01:11:00,-22.1,-27.5,30.20,WNW,284,0.0,0.0,75,0.00,,,0.00,Wunderground v.1.15,2013-01-24 06:11:00,
2013-01-24 01:26:00,-22.4,-27.8,30.21,WNW,284,0.0,0.0,75,0.00,,,0.00,Wunderground v.1.15,2013-01-24 06:26:00,
2013-01-24 01:30:00,-22.4,-27.8,30.20,WNW,284,0.0,0.0,75,0.00,,,0.00,Wunderground v.1.15,2013-01-24 06:30:00,
2013-01-24 01:46:00,-22.8,-28.4,30.21,WNW,284,0.0,0.0,74,0.00,,,0.00,Wunderground v.1.15,2013-01-24 06:46:00,
2013-01-24 01:51:00,-22.7,-28.1,30.21,WNW,284,0.0,0.0,75,0.00,,,0.00,Wunderground v.1.15,2013-01-24 06:51:00,
2013-01-24 01:56:00,-22.8,-28.2,30.21,WNW,284,0.0,0.0,75,0.00,,,0.00,Wunderground v.1.15,2013-01-24 06:56:00,
2013-01-24 02:00:00,-23.0,-28.6,30.21,WNW,284,0.0,0.0,74,0.00,,,0.00,Wunderground v.1.15,2013-01-24 07:00:00,
2013-01-24 02:05:00,-23.0,-28.4,30.21,WNW,284,0.0,0.0,75,0.00,,,0.00,Wunderground v.1.15,2013-01-24 07:05:00,
2013-01-24 02:11:00,-22.9,-28.3,30.21,WNW,284,0.0,0.0,75,0.00,,,0.00,Wunderground v.1.15,2013-01-24 07:11:00,
2013-01-24 04:25:00,-23.9,-29.3,30.20,WNW,284,0.0,0.0,75,0.00,,,0.00,Wunderground v.1.15,2013-01-24 09:25:00,
2013-01-24 04:31:00,-23.8,-29.2,30.21,WNW,284,0.0,0.0,75,0.00,,,0.00,Wunderground v.1.15,2013-01-24 09:31:00,
2013-01-24 04:36:00,-23.8,-29.2,30.21,WNW,284,0.0,0.0,75,0.00,,,0.00,Wunderground v.1.15,2013-01-24 09:36:00,
2013-01-24 04:45:00,-23.4,-28.5,30.21,WNW,284,0.0,0.0,76,0.00,,,0.00,Wunderground v.1.15,2013-01-24 09:45:00,
2013-01-24 04:50:00,-23.2,-28.3,30.21,WNW,284,0.0,0.0,76,0.00,,,0.00,Wunderground v.1.15,2013-01-24 09:50:00,
2013-01-24 04:55:00,-23.1,-28.2,30.21,WNW,284,0.0,0.0,76,0.00,,,0.00,Wunderground v.1.15,2013-01-24 09:55:00,
2013-01-24 05:01:00,-22.9,-28.0,30.20,WNW,284,0.0,0.0,76,0.00,,,0.00,Wunderground v.1.15,2013-01-24 10:01:00,
2013-01-24 05:11:00,-22.6,-27.8,30.21,WNW,284,0.0,0.0,76,0.00,,,0.00,Wunderground v.1.15,2013-01-24 10:11:00,
2013-01-24 05:20:00,-22.4,-27.8,30.21,WNW,284,0.0,0.0,75,0.00,,,0.00,Wunderground v.1.15,2013-01-24 10:20:00,
2013-01-24 05:26:00,-22.2,-27.4,30.21,WNW,284,0.0,0.0,76,0.00,,,0.00,Wunderground v.1.15,2013-01-24 10:26:00,
2013-01-24 05:31:00,-22.1,-27.3,30.21,WNW,284,0.0,0.0,76,0.00,,,0.00,Wunderground v.1.15,2013-01-24 10:31:00,
2013-01-24 05:36:00,-22.0,-27.2,30.21,WNW,284,0.0,0.0,76,0.00,,,0.00,Wunderground v.1.15,2013-01-24 10:36:00,
2013-01-24 05:45:00,-22.3,-27.7,30.21,WNW,284,0.0,0.0,75,0.00,,,0.00,Wunderground v.1.15,2013-01-24 10:45:00,
2013-01-24 05:51:00,-22.4,-27.8,30.21,WNW,284,0.0,1.0,75,0.00,,,0.00,Wunderground v.1.15,2013-01-24 10:51:00,
2013-01-24 05:56:00,-22.5,-27.9,30.21,WNW,284,0.0,0.0,75,0.00,,,0.00,Wunderground v.1.15,2013-01-24 10:56:00,
2013-01-24 06:01:00,-22.7,-28.1,30.22,WNW,284,0.0,0.0,75,0.00,,,0.00,Wunderground v.1.15,2013-01-24 11:01:00,
2013-01-24 06:05:00,-22.8,-28.4,30.22,WNW,284,0.0,0.0,74,0.00,,,0.00,Wunderground v.1.15,2013-01-24 11:05:00,
2013-01-24 06:11:00,-22.9,-28.5,30.22,WNW,284,0.0,0.0,74,0.00,,,0.00,Wunderground v.1.15,2013-01-24 11:11:00,
2013-01-24 06:16:00,-22.9,-28.3,30.22,WNW,284,0.0,0.0,75,0.00,,,0.00,Wunderground v.1.15,2013-01-24 11:16:00,
2013-01-24 06:20:00,-22.9,-28.3,30.22,WNW,284,0.0,1.0,75,0.00,,,0.00,Wunderground v.1.15,2013-01-24 11:20:00,
2013-01-24 06:25:00,-22.9,-28.0,30.22,WNW,284,0.0,1.0,76,0.00,,,0.00,Wunderground v.1.15,2013-01-24 11:25:00,
2013-01-24 06:31:00,-22.9,-28.3,30.23,WNW,284,0.0,0.0,75,0.00,,,0.00,Wunderground v.1.15,2013-01-24 11:31:00,
2013-01-24 06:40:00,-23.1,-28.5,30.23,WNW,284,0.0,0.0,75,0.00,,,0.00,Wunderground v.1.15,2013-01-24 11:40:00,
2013-01-24 06:51:00,-23.1,-28.5,30.23,WNW,284,0.0,0.0,75,0.00,,,0.00,Wunderground v.1.15,2013-01-24 11:51:00,
2013-01-24 07:00:00,-22.6,-27.8,30.24,WNW,284,0.0,0.0,76,0.00,,,0.00,Wunderground v.1.15,2013-01-24 12:00:00,
2013-01-24 07:06:00,-22.6,-28.0,30.24,WNW,284,0.0,0.0,75,0.00,,,0.00,Wunderground v.1.15,2013-01-24 12:06:00,
2013-01-24 07:11:00,-22.8,-28.2,30.24,WNW,284,0.0,0.0,75,0.00,,,0.00,Wunderground v.1.15,2013-01-24 12:11:00,
2013-01-24 07:16:00,-22.9,-28.5,30.24,WNW,284,0.0,0.0,74,0.00,,,0.00,Wunderground v.1.15,2013-01-24 12:16:00,
2013-01-24 07:21:00,-23.0,-28.4,30.24,WNW,284,0.0,0.0,75,0.00,,,0.00,Wunderground v.1.15,2013-01-24 12:21:00,
2013-01-24 07:26:00,-23.0,-28.4,30.24,WNW,284,0.0,0.0,75,0.00,,,0.00,Wunderground v.1.15,2013-01-24 12:26:00,
2013-01-24 07:31:00,-22.8,-27.9,30.24,WNW,284,0.0,0.0,76,0.00,,,0.00,Wunderground v.1.15,2013-01-24 12:31:00,
2013-01-24 07:35:00,-22.6,-28.0,30.24,WNW,284,0.0,0.0,75,0.00,,,0.00,Wunderground v.1.15,2013-01-24 12:35:00,
2013-01-24 07:46:00,-22.6,-28.0,30.24,WNW,284,0.0,0.0,75,0.00,,,0.00,Wunderground v.1.15,2013-01-24 12:46:00,
2013-01-24 07:51:00,-22.7,-28.1,30.24,WNW,284,0.0,0.0,75,0.00,,,0.00,Wunderground v.1.15,2013-01-24 12:51:00,
2013-01-24 07:56:00,-22.4,-27.8,30.25,WNW,284,0.0,0.0,75,0.00,,,0.00,Wunderground v.1.15,2013-01-24 12:56:00,
2013-01-24 08:01:00,-22.1,-27.3,30.25,WNW,284,0.0,0.0,76,0.00,,,0.00,Wunderground v.1.15,2013-01-24 13:01:00,
2013-01-24 08:05:00,-21.7,-26.9,30.25,WNW,284,0.0,1.0,76,0.00,,,0.00,Wunderground v.1.15,2013-01-24 13:05:00,
2013-01-24 08:11:00,-21.2,-26.1,30.25,WNW,284,0.0,0.0,77,0.00,,,0.00,Wunderground v.1.15,2013-01-24 13:11:00,
2013-01-24 08:16:00,-20.7,-25.7,30.25,WNW,284,0.0,0.0,77,0.00,,,0.00,Wunderground v.1.15,2013-01-24 13:16:00,
2013-01-24 08:25:00,-19.2,-24.2,30.25,WNW,284,0.0,0.0,77,0.00,,,0.00,Wunderground v.1.15,2013-01-24 13:25:00,
2013-01-24 08:31:00,-18.0,-22.5,30.25,WNW,284,0.0,0.0,79,0.00,,,0.00,Wunderground v.1.15,2013-01-24 13:31:00,
2013-01-24 08:41:00,-15.4,-19.8,30.25,WNW,284,0.0,1.0,80,0.00,,,0.00,Wunderground v.1.15,2013-01-24 13:41:00,
2013-01-24 08:46:00,-13.9,-18.3,30.25,WNW,287,1.0,1.0,80,0.00,,,0.00,Wunderground v.1.15,2013-01-24 13:46:00,
2013-01-24 08:50:00,-12.5,-16.9,30.25,NW,323,1.0,4.0,80,0.00,,,0.00,Wunderground v.1.15,2013-01-24 13:50:00,
2013-01-24 08:55:00,-9.1,-14.9,30.25,North,355,2.0,5.0,75,0.00,,,0.00,Wunderground v.1.15,2013-01-24 13:55:00,
2013-01-24 09:01:00,-7.2,-14.7,30.25,NW,307,3.0,3.0,69,0.00,,,0.00,Wunderground v.1.15,2013-01-24 14:01:00,
2013-01-24 09:05:00,-6.0,-15.3,30.25,West,276,3.0,6.0,63,0.00,,,0.00,Wunderground v.1.15,2013-01-24 14:05:00,
2013-01-24 09:11:00,-5.3,-16.0,30.25,WSW,253,3.0,4.0,59,0.00,,,0.00,Wunderground v.1.15,2013-01-24 14:11:00,
2013-01-24 09:15:00,-4.8,-15.8,30.25,WSW,252,4.0,4.0,58,0.00,,,0.00,Wunderground v.1.15,2013-01-24 14:15:00,
2013-01-24 09:21:00,-4.0,-15.8,30.25,SW,226,3.0,8.0,56,0.00,,,0.00,Wunderground v.1.15,2013-01-24 14:21:00,
2013-01-24 09:25:00,-3.3,-15.8,30.25,SSW,202,3.0,8.0,54,0.00,,,0.00,Wunderground v.1.15,2013-01-24 14:25:00,
2013-01-24 09:35:00,-2.5,-15.8,30.25,West,281,4.0,4.0,52,0.00,,,0.00,Wunderground v.1.15,2013-01-24 14:35:00,
2013-01-24 09:41:00,-2.3,-16.4,30.24,WSW,247,5.0,5.0,50,0.00,,,0.00,Wunderground v.1.15,2013-01-24 14:41:00,
2013-01-24 09:46:00,-2.6,-16.7,30.24,WSW,249,5.0,8.0,50,0.00,,,0.00,Wunderground v.1.15,2013-01-24 14:46:00,
2013-01-24 09:51:00,-2.9,-17.0,30.25,NW,316,5.0,5.0,50,0.00,,,0.00,Wunderground v.1.15,2013-01-24 14:51:00,
2013-01-24 09:56:00,-3.0,-17.1,30.25,SW,233,5.0,5.0,50,0.00,,,0.00,Wunderground v.1.15,2013-01-24 14:56:00,
2013-01-24 10:06:00,-2.5,-16.6,30.25,NW,325,5.0,10.0,50,0.00,,,0.00,Wunderground v.1.15,2013-01-24 15:06:00,
2013-01-24 10:11:00,-2.6,-16.7,30.25,NW,317,5.0,5.0,50,0.00,,,0.00,Wunderground v.1.15,2013-01-24 15:11:00,
2013-01-24 10:16:00,-2.1,-16.6,30.25,WSW,256,4.0,5.0,49,0.00,,,0.00,Wunderground v.1.15,2013-01-24 15:16:00,
2013-01-24 10:21:00,-1.7,-16.2,30.25,SW,221,5.0,5.0,49,0.00,,,0.00,Wunderground v.1.15,2013-01-24 15:21:00,
2013-01-24 10:25:00,-1.4,-16.0,30.25,West,279,5.0,5.0,49,0.00,,,0.00,Wunderground v.1.15,2013-01-24 15:25:00,
2013-01-24 10:30:00,-1.2,-16.2,30.24,NW,306,5.0,10.0,48,0.00,,,0.00,Wunderground v.1.15,2013-01-24 15:30:00,
2013-01-24 10:36:00,-1.4,-16.0,30.24,WSW,251,5.0,10.0,49,0.00,,,0.00,Wunderground v.1.15,2013-01-24 15:36:00,
2013-01-24 10:40:00,-0.7,-15.3,30.24,WSW,240,5.0,8.0,49,0.00,,,0.00,Wunderground v.1.15,2013-01-24 15:40:00,
2013-01-24 10:46:00,0.0,-14.7,30.24,WSW,245,5.0,8.0,49,0.00,,,0.00,Wunderground v.1.15,2013-01-24 15:46:00,
2013-01-24 10:51:00,0.1,-15.0,30.24,West,279,5.0,5.0,48,0.00,,,0.00,Wunderground v.1.15,2013-01-24 15:51:00,
2013-01-24 10:55:00,-0.3,-15.8,30.24,WSW,256,5.0,5.0,47,0.00,,,0.00,Wunderground v.1.15,2013-01-24 15:55:00,
2013-01-24 11:06:00,-0.4,-15.4,30.24,West,263,4.0,5.0,48,0.00,,,0.00,Wunderground v.1.15,2013-01-24 16:06:00,
2013-01-24 11:16:00,0.0,-15.5,30.23,West,279,3.0,8.0,47,0.00,,,0.00,Wunderground v.1.15,2013-01-24 16:16:00,
2013-01-24 11:25:00,0.5,-15.0,30.22,SSW,196,4.0,4.0,47,0.00,,,0.00,Wunderground v.1.15,2013-01-24 16:25:00,
2013-01-24 11:35:00,0.5,-15.0,30.22,NW,306,6.0,6.0,47,0.00,,,0.00,Wunderground v.1.15,2013-01-24 16:35:00,
2013-01-24 11:45:00,-0.1,-15.2,30.22,SW,230,6.0,6.0,48,0.00,,,0.00,Wunderground v.1.15,2013-01-24 16:45:00,
2013-01-24 11:50:00,-0.3,-15.4,30.22,West,262,6.0,6.0,48,0.00,,,0.00,Wunderground v.1.15,2013-01-24 16:50:00,
2013-01-24 11:56:00,-0.3,-15.8,30.22,West,260,6.0,6.0,47,0.00,,,0.00,Wunderground v.1.15,2013-01-24 16:56:00,
2013-01-24 12:01:00,0.4,-14.3,30.21,SSW,200,5.0,7.0,49,0.00,,,0.00,Wunderground v.1.15,2013-01-24 17:01:00,
2013-01-24 12:05:00,0.8,-14.3,30.21,SW,232,4.0,7.0,48,0.00,,,0.00,Wunderground v.1.15,2013-01-24 17:05:00,
2013-01-24 12:10:00,0.8,-14.8,30.20,SSW,211,5.0,7.0,47,0.00,,,0.00,Wunderground v.1.15,2013-01-24 17:10:00,
2013-01-24 12:16:00,0.9,-14.7,30.20,NW,321,6.0,7.0,47,0.00,,,0.00,Wunderground v.1.15,2013-01-24 17:16:00,
2013-01-24 12:25:00,1.7,-13.9,30.19,West,259,5.0,8.0,47,0.00,,,0.00,Wunderground v.1.15,2013-01-24 17:25:00,
2013-01-24 12:41:00,1.7,-14.3,30.20,WSW,252,6.0,6.0,46,0.00,,,0.00,Wunderground v.1.15,2013-01-24 17:41:00,
2013-01-24 12:46:00,2.3,-14.2,30.19,WNW,292,4.0,6.0,45,0.00,,,0.00,Wunderground v.1.15,2013-01-24 17:46:00,
2013-01-24 12:51:00,3.0,-13.6,30.19,WNW,302,4.0,9.0,45,0.00,,,0.00,Wunderground v.1.15,2013-01-24 17:51:00,
2013-01-24 13:01:00,3.3,-14.2,30.18,WNW,296,5.0,5.0,43,0.00,,,0.00,Wunderground v.1.15,2013-01-24 18:01:00,
2013-01-24 13:06:00,3.7,-14.3,30.18,SW,232,5.0,5.0,42,0.00,,,0.00,Wunderground v.1.15,2013-01-24 18:06:00,
2013-01-24 13:11:00,4.0,-14.0,30.18,NNE,24,5.0,5.0,42,0.00,,,0.00,Wunderground v.1.15,2013-01-24 18:11:00,
2013-01-24 13:16:00,4.9,-12.8,30.18,West,278,4.0,5.0,43,0.00,,,0.00,Wunderground v.1.15,2013-01-24 18:16:00,
2013-01-24 13:21:00,5.2,-13.9,30.18,NW,315,3.0,3.0,40,0.00,,,0.00,Wunderground v.1.15,2013-01-24 18:21:00,
2013-01-24 13:25:00,4.8,-14.3,30.17,South,173,4.0,6.0,40,0.00,,,0.00,Wunderground v.1.15,2013-01-24 18:25:00,
2013-01-24 13:30:00,4.9,-13.2,30.17,NNW,348,5.0,5.0,42,0.00,,,0.00,Wunderground v.1.15,2013-01-24 18:30:00,
2013-01-24 13:35:00,5.5,-13.6,30.17,WSW,248,3.0,5.0,40,0.00,,,0.00,Wunderground v.1.15,2013-01-24 18:35:00,
2013-01-24 13:41:00,5.4,-13.7,30.17,SSW,202,4.0,4.0,40,0.00,,,0.00,Wunderground v.1.15,2013-01-24 18:41:00,
2013-01-24 13:45:00,5.8,-13.4,30.17,WSW,246,4.0,4.0,40,0.00,,,0.00,Wunderground v.1.15,2013-01-24 18:45:00,
2013-01-24 13:50:00,5.9,-13.3,30.17,SSW,199,3.0,7.0,40,0.00,,,0.00,Wunderground v.1.15,2013-01-24 18:50:00,
2013-01-24 13:55:00,5.4,-13.2,30.17,NNW,342,4.0,7.0,41,0.00,,,0.00,Wunderground v.1.15,2013-01-24 18:55:00,
2013-01-24 14:01:00,5.8,-12.4,30.17,ENE,63,5.0,5.0,42,0.00,,,0.00,Wunderground v.1.15,2013-01-24 19:01:00,
2013-01-24 14:06:00,6.3,-11.9,30.17,NNW,346,3.0,6.0,42,0.00,,,0.00,Wunderground v.1.15,2013-01-24 19:06:00,
2013-01-24 14:11:00,6.2,-13.0,30.17,SW,216,4.0,4.0,40,0.00,,,0.00,Wunderground v.1.15,2013-01-24 19:11:00,
2013-01-24 14:16:00,6.3,-12.4,30.17,WSW,244,4.0,6.0,41,0.00,,,0.00,Wunderground v.1.15,2013-01-24 19:16:00,
2013-01-24 14:21:00,5.7,-12.5,30.17,SSW,204,4.0,5.0,42,0.00,,,0.00,Wunderground v.1.15,2013-01-24 19:21:00,
2013-01-24 14:31:00,5.7,-12.0,30.17,WNW,297,5.0,6.0,43,0.00,,,0.00,Wunderground v.1.15,2013-01-24 19:31:00,
2013-01-24 14:36:00,5.6,-12.1,30.18,SW,230,5.0,10.0,43,0.00,,,0.00,Wunderground v.1.15,2013-01-24 19:36:00,
2013-01-24 14:40:00,5.4,-11.8,30.18,WNW,288,5.0,10.0,44,0.00,,,0.00,Wunderground v.1.15,2013-01-24 19:40:00,
2013-01-24 14:45:00,4.9,-11.8,30.18,WSW,258,7.0,10.0,45,0.00,,,0.00,Wunderground v.1.15,2013-01-24 19:45:00,
2013-01-24 14:51:00,4.7,-11.6,30.18,WSW,252,8.0,8.0,46,0.00,,,0.00,Wunderground v.1.15,2013-01-24 19:51:00,
2013-01-24 14:56:00,5.0,-11.3,30.18,WNW,282,6.0,8.0,46,0.00,,,0.00,Wunderground v.1.15,2013-01-24 19:56:00,
2013-01-24 15:01:00,5.0,-11.3,30.18,WSW,255,4.0,7.0,46,0.00,,,0.00,Wunderground v.1.15,2013-01-24 20:01:00,
2013-01-24 15:11:00,4.6,-11.2,30.19,NNW,331,7.0,7.0,47,0.00,,,0.00,Wunderground v.1.15,2013-01-24 20:11:00,
2013-01-24 15:16:00,4.6,-11.2,30.19,WSW,243,6.0,7.0,47,0.00,,,0.00,Wunderground v.1.15,2013-01-24 20:16:00,
2013-01-24 15:21:00,4.6,-11.2,30.19,West,271,4.0,4.0,47,0.00,,,0.00,Wunderground v.1.15,2013-01-24 20:21:00,
2013-01-24 15:25:00,4.3,-11.5,30.19,NNW,336,4.0,4.0,47,0.00,,,0.00,Wunderground v.1.15,2013-01-24 20:25:00,
2013-01-24 15:31:00,4.2,-11.2,30.20,North,350,3.0,4.0,48,0.00,,,0.00,Wunderground v.1.15,2013-01-24 20:31:00,
2013-01-24 15:36:00,4.0,-11.8,30.19,WSW,254,3.0,9.0,47,0.00,,,0.00,Wunderground v.1.15,2013-01-24 20:36:00,
2013-01-24 15:41:00,3.8,-11.6,30.20,NNW,340,5.0,5.0,48,0.00,,,0.00,Wunderground v.1.15,2013-01-24 20:41:00,
2013-01-24 15:50:00,3.1,-12.2,30.21,WNW,297,4.0,4.0,48,0.00,,,0.00,Wunderground v.1.15,2013-01-24 20:50:00,
2013-01-24 15:55:00,3.1,-11.8,30.21,SSW,196,4.0,7.0,49,0.00,,,0.00,Wunderground v.1.15,2013-01-24 20:55:00,
2013-01-24 16:00:00,2.4,-12.0,30.21,WNW,300,5.0,8.0,50,0.00,,,0.00,Wunderground v.1.15,2013-01-24 21:00:00,
2013-01-24 16:06:00,2.0,-12.0,30.22,WSW,257,5.0,8.0,51,0.00,,,0.00,Wunderground v.1.15,2013-01-24 21:06:00,
2013-01-24 16:11:00,1.7,-12.3,30.22,SSW,196,4.0,5.0,51,0.00,,,0.00,Wunderground v.1.15,2013-01-24 21:11:00,
2013-01-24 16:16:00,1.2,-12.4,30.23,SSW,200,4.0,6.0,52,0.00,,,0.00,Wunderground v.1.15,2013-01-24 21:16:00,
2013-01-24 16:21:00,0.8,-12.4,30.23,WSW,241,5.0,8.0,53,0.00,,,0.00,Wunderground v.1.15,2013-01-24 21:21:00,
2013-01-24 16:26:00,0.4,-12.7,30.24,NW,319,5.0,8.0,53,0.00,,,0.00,Wunderground v.1.15,2013-01-24 21:26:00,
2013-01-24 16:31:00,0.2,-12.5,30.24,WSW,242,4.0,4.0,54,0.00,,,0.00,Wunderground v.1.15,2013-01-24 21:31:00,
2013-01-24 16:36:00,-0.2,-12.9,30.25,SSW,192,5.0,5.0,54,0.00,,,0.00,Wunderground v.1.15,2013-01-24 21:36:00,
2013-01-24 16:40:00,-0.5,-12.8,30.25,SSW,199,4.0,4.0,55,0.00,,,0.00,Wunderground v.1.15,2013-01-24 21:40:00,
2013-01-24 16:45:00,-0.7,-12.7,30.25,WSW,245,4.0,5.0,56,0.00,,,0.00,Wunderground v.1.15,2013-01-24 21:45:00,
2013-01-24 16:50:00,-1.0,-12.9,30.25,WSW,253,5.0,5.0,56,0.00,,,0.00,Wunderground v.1.15,2013-01-24 21:50:00,
2013-01-24 16:56:00,-1.1,-12.7,30.26,WNW,295,5.0,5.0,57,0.00,,,0.00,Wunderground v.1.15,2013-01-24 21:56:00,
2013-01-24 17:01:00,-1.2,-12.4,30.26,WSW,257,4.0,4.0,58,0.00,,,0.00,Wunderground v.1.15,2013-01-24 22:01:00,
2013-01-24 17:06:00,-1.3,-12.2,30.27,West,262,5.0,5.0,59,0.00,,,0.00,Wunderground v.1.15,2013-01-24 22:06:00,
2013-01-24 17:11:00,-1.4,-11.9,30.27,WSW,239,4.0,5.0,60,0.00,,,0.00,Wunderground v.1.15,2013-01-24 22:11:00,
2013-01-24 17:16:00,-1.5,-11.7,30.27,West,264,4.0,5.0,61,0.00,,,0.00,Wunderground v.1.15,2013-01-24 22:16:00,
2013-01-24 17:21:00,-1.7,-11.2,30.27,WNW,289,5.0,5.0,63,0.00,,,0.00,Wunderground v.1.15,2013-01-24 22:21:00,
2013-01-24 17:26:00,-1.8,-11.0,30.28,SW,236,5.0,5.0,64,0.00,,,0.00,Wunderground v.1.15,2013-01-24 22:26:00,
2013-01-24 17:30:00,-1.9,-10.8,30.28,WSW,243,4.0,4.0,65,0.00,,,0.00,Wunderground v.1.15,2013-01-24 22:30:00,
2013-01-24 17:40:00,-2.1,-10.7,30.28,WSW,250,5.0,6.0,66,0.00,,,0.00,Wunderground v.1.15,2013-01-24 22:40:00,
2013-01-24 17:45:00,-2.1,-10.7,30.28,WSW,246,6.0,6.0,66,0.00,,,0.00,Wunderground v.1.15,2013-01-24 22:45:00,
2013-01-24 17:51:00,-2.1,-10.7,30.28,WSW,248,5.0,5.0,66,0.00,,,0.00,Wunderground v.1.15,2013-01-24 22:51:00,
2013-01-24 17:56:00,-2.1,-10.4,30.28,WSW,251,5.0,8.0,67,0.00,,,0.00,Wunderground v.1.15,2013-01-24 22:56:00,
2013-01-24 18:01:00,-2.1,-10.7,30.28,SW,233,7.0,7.0,66,0.00,,,0.00,Wunderground v.1.15,2013-01-24 23:01:00,
2013-01-24 18:05:00,-2.0,-10.3,30.28,NW,304,6.0,7.0,67,0.00,,,0.00,Wunderground v.1.15,2013-01-24 23:05:00,
2013-01-24 18:11:00,-2.0,-10.0,30.29,SW,219,4.0,4.0,68,0.00,,,0.00,Wunderground v.1.15,2013-01-24 23:11:00,
2013-01-24 18:16:00,-2.0,-9.7,30.28,West,277,4.0,5.0,69,0.00,,,0.00,Wunderground v.1.15,2013-01-24 23:16:00,
2013-01-24 18:20:00,-1.9,-9.6,30.29,WSW,257,4.0,4.0,69,0.00,,,0.00,Wunderground v.1.15,2013-01-24 23:20:00,
2013-01-24 18:31:00,-1.8,-9.5,30.30,WSW,240,3.0,4.0,69,0.00,,,0.00,Wunderground v.1.15,2013-01-24 23:31:00,
2013-01-24 18:36:00,-1.8,-9.5,30.30,NW,306,3.0,4.0,69,0.00,,,0.00,Wunderground v.1.15,2013-01-24 23:36:00,
2013-01-24 18:41:00,-1.7,-9.4,30.30,WNW,286,4.0,4.0,69,0.00,,,0.00,Wunderground v.1.15,2013-01-24 23:41:00,
2013-01-24 18:51:00,-1.7,-9.1,30.31,WSW,257,3.0,9.0,70,0.00,,,0.00,Wunderground v.1.15,2013-01-24 23:51:00,
2013-01-24 18:55:00,-1.7,-9.1,30.32,NW,309,3.0,9.0,70,0.00,,,0.00,Wunderground v.1.15,2013-01-24 23:55:00,
2013-01-24 19:05:00,-1.7,-9.1,30.32,WSW,243,5.0,7.0,70,0.00,,,0.00,Wunderground v.1.15,2013-01-25 00:05:00,
2013-01-24 19:11:00,-1.7,-9.1,30.32,North,5,5.0,5.0,70,0.00,,,0.00,Wunderground v.1.15,2013-01-25 00:11:00,
2013-01-24 19:16:00,-1.7,-8.8,30.32,SSE,167,3.0,5.0,71,0.00,,,0.00,Wunderground v.1.15,2013-01-25 00:16:00,
2013-01-24 19:40:00,-1.8,-8.6,30.31,WSW,242,3.0,4.0,72,0.00,,,0.00,Wunderground v.1.15,2013-01-25 00:40:00,
2013-01-24 19:46:00,-1.7,-8.8,30.31,West,267,3.0,5.0,71,0.00,,,0.00,Wunderground v.1.15,2013-01-25 00:46:00,
2013-01-24 19:51:00,-1.7,-8.8,30.31,WSW,240,3.0,5.0,71,0.00,,,0.00,Wunderground v.1.15,2013-01-25 00:51:00,
2013-01-24 19:55:00,-1.7,-8.8,30.31,WSW,239,3.0,5.0,71,0.00,,,0.00,Wunderground v.1.15,2013-01-25 00:55:00,
2013-01-24 20:06:00,-1.7,-9.1,30.30,West,269,3.0,6.0,70,0.00,,,0.00,Wunderground v.1.15,2013-01-25 01:06:00,
2013-01-24 20:21:00,-1.7,-9.7,30.31,NNW,328,6.0,10.0,68,0.00,,,0.00,Wunderground v.1.15,2013-01-25 01:21:00,
2013-01-24 20:26:00,-1.7,-9.7,30.31,NNW,341,5.0,10.0,68,0.00,,,0.00,Wunderground v.1.15,2013-01-25 01:26:00,
2013-01-24 20:35:00,-1.8,-10.1,30.32,NW,321,3.0,3.0,67,0.00,,,0.00,Wunderground v.1.15,2013-01-25 01:35:00,
2013-01-24 20:41:00,-1.8,-10.1,30.32,WNW,284,3.0,5.0,67,0.00,,,0.00,Wunderground v.1.15,2013-01-25 01:41:00,
2013-01-24 20:46:00,-1.8,-10.1,30.32,WNW,288,4.0,5.0,67,0.00,,,0.00,Wunderground v.1.15,2013-01-25 01:46:00,
2013-01-24 20:51:00,-1.9,-10.2,30.33,SW,221,3.0,8.0,67,0.00,,,0.00,Wunderground v.1.15,2013-01-25 01:51:00,
2013-01-24 21:01:00,-1.8,-10.1,30.33,WSW,249,4.0,6.0,67,0.00,,,0.00,Wunderground v.1.15,2013-01-25 02:01:00,
2013-01-24 21:06:00,-1.8,-10.1,30.33,WNW,296,4.0,6.0,67,0.00,,,0.00,Wunderground v.1.15,2013-01-25 02:06:00,
2013-01-24 21:21:00,-1.9,-9.9,30.33,WSW,242,4.0,7.0,68,0.00,,,0.00,Wunderground v.1.15,2013-01-25 02:21:00,
2013-01-24 21:25:00,-1.9,-9.9,30.33,West,263,4.0,7.0,68,0.00,,,0.00,Wunderground v.1.15,2013-01-25 02:25:00,
2013-01-24 21:31:00,-1.9,-9.6,30.33,WSW,248,3.0,5.0,69,0.00,,,0.00,Wunderground v.1.15,2013-01-25 02:31:00,
2013-01-24 21:51:00,-2.0,-9.1,30.34,NNW,341,4.0,4.0,71,0.00,,,0.00,Wunderground v.1.15,2013-01-25 02:51:00,
2013-01-24 21:56:00,-2.1,-8.9,30.35,NW,311,4.0,5.0,72,0.00,,,0.00,Wunderground v.1.15,2013-01-25 02:56:00,
2013-01-24 22:00:00,-2.1,-8.9,30.35,West,269,4.0,4.0,72,0.00,,,0.00,Wunderground v.1.15,2013-01-25 03:00:00,
2013-01-24 22:11:00,-2.2,-8.7,30.34,West,275,3.0,3.0,73,0.00,,,0.00,Wunderground v.1.15,2013-01-25 03:11:00,
2013-01-24 22:21:00,-2.3,-8.6,30.35,South,184,3.0,3.0,74,0.00,,,0.00,Wunderground v.1.15,2013-01-25 03:21:00,
2013-01-24 22:26:00,-2.3,-8.6,30.35,NNW,331,3.0,5.0,74,0.00,,,0.00,Wunderground v.1.15,2013-01-25 03:26:00,
2013-01-24 22:30:00,-2.3,-8.6,30.36,NNW,335,3.0,7.0,74,0.00,,,0.00,Wunderground v.1.15,2013-01-25 03:30:00,
2013-01-24 22:36:00,-2.3,-8.6,30.36,WNW,292,3.0,7.0,74,0.00,,,0.00,Wunderground v.1.15,2013-01-25 03:36:00,
2013-01-24 22:41:00,-2.4,-8.9,30.36,NW,309,3.0,3.0,73,0.00,,,0.00,Wunderground v.1.15,2013-01-25 03:41:00,
2013-01-24 22:46:00,-2.4,-8.9,30.36,WNW,286,2.0,3.0,73,0.00,,,0.00,Wunderground v.1.15,2013-01-25 03:46:00,
2013-01-24 22:55:00,-2.4,-9.2,30.37,NE,53,1.0,2.0,72,0.00,,,0.00,Wunderground v.1.15,2013-01-25 03:55:00,
2013-01-24 23:01:00,-2.5,-9.0,30.37,West,266,2.0,2.0,73,0.00,,,0.00,Wunderground v.1.15,2013-01-25 04:01:00,
2013-01-24 23:06:00,-2.5,-9.0,30.37,WNW,296,2.0,2.0,73,0.00,,,0.00,Wunderground v.1.15,2013-01-25 04:06:00,
2013-01-24 23:16:00,-2.6,-8.8,30.38,WSW,240,1.0,2.0,74,0.00,,,0.00,Wunderground v.1.15,2013-01-25 04:16:00,
2013-01-24 23:21:00,-2.7,-8.9,30.38,WSW,240,1.0,1.0,74,0.00,,,0.00,Wunderground v.1.15,2013-01-25 04:21:00,
2013-01-24 23:25:00,-2.7,-8.9,30.38,WSW,258,1.0,1.0,74,0.00,,,0.00,Wunderground v.1.15,2013-01-25 04:25:00,
2013-01-24 23:31:00,-2.8,-8.8,30.38,WSW,238,1.0,3.0,75,0.00,,,0.00,Wunderground v.1.15,2013-01-25 04:31:00,
2013-01-24 23:35:00,-2.8,-8.8,30.38,NW,309,2.0,3.0,75,0.00,,,0.00,Wunderground v.1.15,2013-01-25 04:35:00,
2013-01-24 23:41:00,-2.8,-8.8,30.38,NNW,334,1.0,3.0,75,0.00,,,0.00,Wunderground v.1.15,2013-01-25 04:41:00,
2013-01-24 23:45:00,-2.8,-8.8,30.38,NNW,327,2.0,4.0,75,0.00,,,0.00,Wunderground v.1.15,2013-01-25 04:45:00,
2013-01-24 23:51:00,-2.9,-8.6,30.38,WSW,255,2.0,2.0,76,0.00,,,0.00,Wunderground v.1.15,2013-01-25 04:51:00,